Regional Weather Roundup
Issued by NWS

Home | Current Version | Previous Version | Graphics & Text | Print | Product List | Glossary On
Versions: 1 2 3 4 5 6 7 8 9 10 11 12 13 14 15 16 17 18 19 20 21 22 23 24 25 26 27
000
ASUS45 KPSR 100610
RWRAZ

ARIZONA HOURLY REGIONAL WEATHER ROUNDUP
NATIONAL WEATHER SERVICE PHOENIX AZ
1100 PM MST SAT DEC 09 2017

NOTE: FAIR INDICATES FEW OR NO CLOUDS BELOW 12,000 FEET WITH NO
SIGNIFICANT WEATHER AND/OR OBSTRUCTIONS TO VISIBILITY.

AZZ001>003-036-100700-
NORTHWEST ARIZONA

CITY           SKY/WX    TMP DP  RH WIND       PRES   REMARKS
BULLHEAD CITY  CLEAR     64   9  11 NE17G24   30.31R
KINGMAN        CLEAR     35   2  24 CALM      30.41R
6HR MIN TEMP:  35; 6HR MAX TEMP:  59;

$$

AZZ004>008-015-016-018-100700-
NORTH CENTRAL ARIZONA

CITY           SKY/WX    TMP DP  RH WIND       PRES   REMARKS
GRAND CANYON   PTCLDY    16  -6  37 CALM      30.52S
6HR MIN TEMP:  15; 6HR MAX TEMP:  46;

WILLIAMS       PTCLDY    28   1  31 S9        30.47R WCI  20
PRESCOTT       PTCLDY    31   7  36 S6        30.44R WCI  25
6HR MIN TEMP:  30; 6HR MAX TEMP:  56;

FLAGSTAFF      PTCLDY    20  -1  40 CALM      30.51R
6HR MIN TEMP:  20; 6HR MAX TEMP:  44;

PAYSON         CLEAR     46   1  15 CALM      30.43R
PAGE           PTCLDY    34  17  50 W3        30.52R
6HR MIN TEMP:  34; 6HR MAX TEMP:  47;

$$

AZZ009>014-017-100700-
NORTHEAST ARIZONA

CITY           SKY/WX    TMP DP  RH WIND       PRES   REMARKS
WINSLOW        PTCLDY    26  -1  31 CALM      30.50S
6HR MIN TEMP:  22; 6HR MAX TEMP:  50;

SAINT JOHNS    CLEAR     27   4  37 CALM      30.49S
6HR MIN TEMP:  26; 6HR MAX TEMP:  47;

WINDOW ROCK    CLEAR     18  -3  39 CALM      30.53R
6HR MIN TEMP:  15; 6HR MAX TEMP:  52;

SHOW LOW       CLEAR     27   3  36 CALM      30.51S
$$

AZZ540-542>544-546-548-100700-
GREATER PHOENIX AREA

CITY           SKY/WX    TMP DP  RH WIND       PRES   REMARKS
PHOENIX        MOCLDY    66  18  15 NE15      30.24R
6HR MIN TEMP:  61; 6HR MAX TEMP:  74;

BUCKEYE        MOCLDY    50   9  18 CALM      30.25R
LUKE AFB       PTCLDY    55  18  23 N9        30.25R
6HR MIN TEMP:  50; 6HR MAX TEMP:  67;

DEER VALLEY    PTCLDY    63  11  13 E9        30.27R
6HR MIN TEMP:  60; 6HR MAX TEMP:  72;

SCOTTSDALE     PTCLDY    66  16  14 N7        30.28R
6HR MIN TEMP:  63; 6HR MAX TEMP:  73;

MESA-GATEWAY   MOCLDY    63  16  16 NE10      30.27R
$$

AZZ539-553-100700-
SOUTHWEST MARICOPA COUNTY AND PINAL COUNTY

CITY           SKY/WX    TMP DP  RH WIND       PRES   REMARKS
CASA GRANDE    NOT AVBL
$$

AZZ503-504-507>509-100700-
SOUTHEAST ARIZONA

CITY           SKY/WX    TMP DP  RH WIND       PRES   REMARKS
TUCSON         PTCLDY    59  11  15 SE7       30.28R
6HR MIN TEMP:  58; 6HR MAX TEMP:  70;

DAVIS-MONTHAN  MOCLDY    53  11  18 E7        30.25S
6HR MIN TEMP:  53; 6HR MAX TEMP:  67;

NOGALES        CLOUDY    53  12  19 NE10      30.27S
6HR MIN TEMP:  53; 6HR MAX TEMP:  64;

SIERRA VISTA   CLOUDY    44  11  26 SE6       30.37R
6HR MIN TEMP:  43; 6HR MAX TEMP:  58;

DOUGLAS        CLOUDY    52  12  20 E17       30.36R
6HR MIN TEMP:  52; 6HR MAX TEMP:  58;

SAFFORD        PTCLDY    53  13  20 E15       30.39S
6HR MIN TEMP:  48; 6HR MAX TEMP:  60;

$$

AZZ532-100700-
SOUTHWEST ARIZONA

CITY           SKY/WX    TMP DP  RH WIND       PRES   REMARKS
YUMA           MOCLDY    56  17  21 S5        30.20S
6HR MIN TEMP:  56; 6HR MAX TEMP:  71;

$$

CAZ041-043-047-048-061-525>527-560>570-100700-
SOUTHERN CALIFORNIA

CITY           SKY/WX    TMP DP  RH WIND       PRES   REMARKS
DOWNTOWN L.A.  PTCLDY    59  27  29 CALM      30.17S
6HR MIN TEMP:  59; 6HR MAX TEMP:  80;

L.A. AIRPORT   PTCLDY    65  20  17 NE3       30.17S
6HR MIN TEMP:  65; 6HR MAX TEMP:  80;

SAN DIEGO      PTCLDY    59  33  37 CALM      30.16S
6HR MIN TEMP:  59; 6HR MAX TEMP:  71;

BURBANK        PTCLDY    63  18  17 NE3       30.19R
6HR MIN TEMP:  61; 6HR MAX TEMP:  80;

ONTARIO        MOCLDY    73  -1   5 NE12G23   30.20R
6HR MIN TEMP:  70; 6HR MAX TEMP:  78;

RIVERSIDE      PTCLDY    59  17  19 SE6       30.23S
6HR MIN TEMP:  59; 6HR MAX TEMP:  77;

PALM SPRINGS   PTCLDY    64  14  14 W6        30.29R
6HR MIN TEMP:  60; 6HR MAX TEMP:  73;

EL CENTRO NAS  PTCLDY    50  10  20 W8        30.25R
6HR MIN TEMP:  49; 6HR MAX TEMP:  70;

IMPERIAL       PTCLDY    50  20  30 W6        30.22S
6HR MIN TEMP:  50; 6HR MAX TEMP:  72;

BLYTHE         CLEAR     58  10  15 NW3       30.26R
6HR MIN TEMP:  55; 6HR MAX TEMP:  69;

NEEDLES        CLEAR     60   8  12 N8        30.32R
6HR MIN TEMP:  60; 6HR MAX TEMP:  70;

$$

NVZ020-UTZ003-100700-
SOUTHERN NEVADA-UTAH

CITY           SKY/WX    TMP DP  RH WIND       PRES   REMARKS
LAS VEGAS      CLEAR     50  12  21 S3        30.39R
6HR MIN TEMP:  48; 6HR MAX TEMP:  64;

SALT LAKE CITY PTCLDY    27  23  85 CALM      30.63F FOG
6HR MIN TEMP:  26; 6HR MAX TEMP:  33;

$$

NMZ009-TXZ055-100700-
NEW MEXICO-WEST TEXAS

CITY           SKY/WX    TMP DP  RH WIND       PRES   REMARKS
ALBUQUERQUE    CLOUDY    36   8  31 NE6       30.49R WCI  31
6HR MIN TEMP:  32; 6HR MAX TEMP:  49;

EL PASO        CLEAR     39  29  67 S3        30.47S
6HR MIN TEMP:  38; 6HR MAX TEMP:  51;

$$


........................KEY........................
SKY/WX - SKY CONDITION/WEATHER
TMP    - TEMPERATURE IN FAHRENHEIT
DP     - DEW POINT IN FAHRENHEIT
RH     - RELATIVE HUMIDITY IN PERCENT
WIND   - DIRECTION AND SPEED IN MILES PER HOUR (MPH)
VRB    - VARIABLE WIND DIRECTION
PRES   - MEAN SEA LEVEL PRESSURE IN INCHES OF MERCURY
         F - FALLING PRESSURE   R - RISING PRESSURE
         S - STEADY PRESSURE
VSB    - VISIBILITY IN MILES
HX     - HEAT INDEX IN FAHRENHEIT
WCI    - WIND CHILL INDEX IN FAHRENHEIT
TC     - TEMPERATURE IN CELSIUS WHICH IS ALSO KNOWN AS
         TEMPERATURE IN CENTIGRADE
AFB    - AIR FORCE BASE
         LUKE AFB IS LUKE AIR FORCE BASE
         DAVIS-MONTHAN IS DAVIS-MONTHAN AIR FORCE BASE
NAS    - NAVAL AIR STATION
         EL CENTRO NAS IS EL CENTRO NAVAL AIR STATION
N/A    - NOT AVAILABLE





USA.gov is the U.S. government's official web portal to all federal, state and local government web resources and services.